{"data":{"norad_id":68784,"epoch":"2026-05-25T04:00:03.998880Z","epoch_age_seconds":63709,"freshness":"FRESH","line1":"1 68784U 26086U   26145.16671295 -.01908069  00000+0 -28411-1 0  9991","line2":"2 68784  97.2852 182.0044 0001488  82.5579 218.1874 15.58422501  6071","mean_motion":15.58422501,"eccentricity":0.0001488,"inclination_deg":97.2852,"raan_deg":182.0044,"arg_perigee_deg":82.5579,"mean_anomaly_deg":218.1874,"bstar":-0.028411,"rev_number":607,"period_min":92.401129929527,"perigee_km":391.21462375122,"apogee_km":393.22948260545,"semimajor_km":6770.3590531783,"source":"CELESTRAK","updated_at":"2026-05-25T13:38:22.038135Z"}}